DW0538 Weather Reports


time (UTC)temp
C
wind
direction
speed
KPH
gust
KPH
rain 1hr
cm
rain 24hr
cm
rain mn
cm
humidity
%
barometer
mb
20260504032810 10 273 0.0 0.0 0.00 0.00 0.00 50 1012.1
20260504032320 10 273 0.0 0.0 0.00 0.00 0.00 50 1012.0
20260504031309 10 273 0.0 0.0 0.00 0.00 0.00 48 1012.0
20260504025826 10 273 0.0 0.0 0.00 0.00 0.00 47 1012.0
20260504024826 11 292 0.0 0.0 0.00 0.00 0.00 47 1012.0
20260504024314 11 292 0.0 3.2 0.00 0.00 0.00 46 1011.9
20260504023814 11 292 0.0 0.0 0.00 0.00 0.00 46 1011.9
20260504022824 11 292 0.0 0.0 0.00 0.00 0.00 45 1012.0
20260504022314 11 292 0.0 0.0 0.00 0.00 0.00 46 1012.0
20260504021827 11 292 0.0 0.0 0.00 0.00 0.00 45 1012.0
20260504021321 11 292 0.0 0.0 0.00 0.00 0.00 44 1012.0
20260504020809 11 292 0.0 0.0 0.00 0.00 0.00 44 1012.0
20260504020327 11 292 0.0 3.2 0.00 0.00 0.00 44 1012.0
20260504015813 11 292 0.0 3.2 0.00 0.00 0.00 43 1012.0
20260504014819 11 303 0.0 0.0 0.00 0.00 0.00 43 1012.0
20260504014331 11 302 0.0 0.0 0.00 0.00 0.00 43 1011.8
20260504012315 12 302 0.0 0.0 0.00 0.00 0.00 43 1011.6
20260504011809 12 302 0.0 0.0 0.00 0.00 0.00 43 1011.7
20260504011313 12 302 0.0 0.0 0.00 0.00 0.00 42 1011.6
20260504010825 12 302 0.0 0.0 0.00 0.00 0.00 42 1011.6
20260504010322 13 302 0.0 0.0 0.00 0.00 0.00 39 1011.6
20260504005330 13 302 0.0 0.0 0.00 0.00 0.00 37 1011.4
20260504004815 13 302 0.0 0.0 0.00 0.00 0.00 36 1011.3
20260504004329 13 302 0.0 0.0 0.00 0.00 0.00 36 1011.3
20260504003311 13 302 0.0 0.0 0.00 0.00 0.00 35 1011.0
20260504002819 13 302 0.0 0.0 0.00 0.00 0.00 35 1011.1
20260504001809 14 302 0.0 0.0 0.00 0.00 0.00 35 1011.0
20260504001326 14 302 0.0 0.0 0.00 0.00 0.00 34 1010.9
20260504000819 14 302 0.0 0.0 0.00 0.00 0.00 35 1010.7
20260504000320 14 296 0.0 0.0 0.00 0.00 0.00 34 1010.7
20260503235312 14 298 0.0 0.0 0.00 0.00 0.00 33 1010.5
20260503233811 15 298 0.0 0.0 0.00 0.00 0.00 33 1010.4
20260503233310 15 293 0.0 0.0 0.00 0.00 0.00 32 1010.4
20260503232820 15 302 0.0 1.6 0.00 0.00 0.00 32 1010.3
20260503232315 15 302 0.0 4.8 0.00 0.00 0.00 32 1010.3
20260503231324 15 322 0.0 3.2 0.00 0.00 0.00 31 1010.3
20260503230811 15 334 0.0 6.4 0.00 0.00 0.00 31 1010.2
20260503230331 15 339 0.0 6.4 0.00 0.00 0.00 31 1010.2
20260503225320 15 329 0.0 12.9 0.00 0.00 0.00 30 1010.1
20260503224329 16 324 0.0 9.7 0.00 0.00 0.00 29 1009.9
20260503223815 16 306 1.6 6.4 0.00 0.00 0.00 29 1010.0
20260503223326 16 343 0.0 0.0 0.00 0.00 0.00 29 1010.0
20260503222821 16 360 0.0 12.9 0.00 0.00 0.00 32 1009.9
20260503222315 16 360 0.0 14.5 0.00 0.00 0.00 30 1010.1
20260503221827 16 19 8.0 14.5 0.00 0.00 0.00 29 1009.9
20260503220812 16 16 1.6 12.9 0.00 0.00 0.00 28 1010.0
20260503220329 16 15 0.0 11.3 0.00 0.00 0.00 29 1010.0
20260503215310 16 302 0.0 14.5 0.00 0.00 0.00 29 1009.9
20260503214827 16 344 1.6 9.7 0.00 0.00 0.00 29 1010.0
20260503214323 15 355 0.0 19.3 0.00 0.00 0.00 28 1010.1
20260503213815 15 291 1.6 19.3 0.00 0.00 0.00 30 1010.0
20260503213330 15 339 3.2 22.5 0.00 0.00 0.00 29 1010.1
20260503212832 15 343 1.6 24.1 0.00 0.00 0.00 28 1010.0
20260503210813 15 328 3.2 19.3 0.00 0.00 0.00 28 1009.9
20260503210329 15 313 9.7 19.3 0.00 0.00 0.00 28 1009.9
20260503205308 15 307 4.8 22.5 0.00 0.00 0.00 30 1009.9
20260503204813 15 336 0.0 0.0 0.00 0.00 0.00 30 1009.9
20260503204330 15 261 1.6 29.0 0.00 0.00 0.00 30 1010.0
20260503203814 15 63 9.7 16.1 0.00 0.00 0.00 29 1010.0
20260503203309 15 304 4.8 17.7 0.00 0.00 0.00 31 1010.0
20260503202822 15 319 0.0 19.3 0.00 0.00 0.00 30 1010.1
20260503202309 15 298 4.8 25.7 0.00 0.00 0.00 30 1010.1
20260503201319 15 355 1.6 12.9 0.00 0.00 0.00 33 1010.2
20260503200831 14 332 0.0 17.7 0.00 0.00 0.00 32 1010.3
20260503200315 13 254 3.2 20.9 0.00 0.00 0.00 33 1010.3
20260503195818 13 281 3.2 22.5 0.00 0.00 0.00 32 1010.5
20260503195332 14 318 4.8 22.5 0.00 0.00 0.00 31 1010.6
20260503194834 14 344 0.0 0.0 0.00 0.00 0.00 31 1010.6
20260503194324 14 315 1.6 30.6 0.00 0.00 0.00 33 1010.5
20260503193826 14 315 4.8 30.6 0.00 0.00 0.00 32 1010.6
20260503190814 13 5 4.8 22.5 0.00 0.00 0.00 32 1010.8
20260503185820 13 342 8.0 22.5 0.00 0.00 0.00 34 1011.0
20260503184827 13 271 9.7 24.1 0.00 0.00 0.00 34 1011.1
20260503184317 13 321 4.8 20.9 0.00 0.00 0.00 36 1011.0
20260503183319 13 355 0.0 20.9 0.00 0.00 0.00 38 1011.0
20260503182829 13 360 4.8 22.5 0.00 0.00 0.00 35 1010.9
20260503182319 13 32 1.6 22.5 0.00 0.00 0.00 37 1010.9
20260503181811 12 325 0.0 17.7 0.00 0.00 0.00 37 1010.9
20260503180817 12 290 3.2 29.0 0.00 0.00 0.00 37 1011.2
20260503180315 12 355 4.8 20.9 0.00 0.00 0.00 39 1011.1
20260503175824 11 273 1.6 25.7 0.00 0.00 0.00 38 1011.1
20260503175313 11 5 6.4 25.7 0.00 0.00 0.00 39 1011.1
20260503174317 12 15 3.2 20.9 0.00 0.00 0.00 40 1011.1
20260503173829 11 339 3.2 16.1 0.00 0.00 0.00 40 1011.3
20260503171824 11 325 9.7 24.1 0.00 0.00 0.00 41 1011.6
20260503170825 11 335 9.7 20.9 0.00 0.00 0.00 41 1011.5
20260503150829 9 36 1.6 12.9 0.00 0.00 0.00 45 1012.0
20260503131323 8 355 8.0 19.3 0.00 0.00 0.00 56 1011.9
20260503130813 8 360 0.0 19.3 0.00 0.00 0.00 56 1011.8
20260503130324 8 24 4.8 19.3 0.00 0.00 0.00 56 1011.8
20260503110345 6 10 0.0 0.0 0.00 0.00 0.00 62 1011.7
20260503090317 7 355 0.0 8.0 0.00 0.00 0.00 56 1010.4
20260503081322 7 32 0.0 0.0 0.00 0.00 0.00 56 1010.4
20260503080813 7 339 0.0 0.0 0.00 0.00 0.00 56 1010.4
20260503080312 7 355 0.0 4.8 0.00 0.00 0.00 56 1010.4
20260503072809 7 28 0.0 0.0 0.00 0.00 0.00 57 1010.3
20260503072328 7 28 0.0 0.0 0.00 0.00 0.00 57 1010.3
20260503071818 7 28 0.0 0.0 0.00 0.00 0.00 56 1010.2
20260503071317 7 28 0.0 0.0 0.00 0.00 0.00 57 1010.2
20260503060330 8 20 0.0 0.0 0.00 0.00 0.00 51 1010.5
20260503054831 9 20 0.0 0.0 0.00 0.00 0.00 49 1010.5
20260503054323 9 20 0.0 1.6 0.00 0.00 0.00 49 1010.6
20260503053815 9 20 0.0 1.6 0.00 0.00 0.00 48 1010.6
20260503053316 9 11 0.0 0.0 0.00 0.00 0.00 49 1010.6
20260503051831 9 13 0.0 0.0 0.00 0.00 0.00 50 1010.8
20260503050813 10 13 0.0 0.0 0.00 0.00 0.00 50 1010.9
20260503050327 10 13 0.0 0.0 0.00 0.00 0.00 49 1010.9
20260503045323 10 13 0.0 0.0 0.00 0.00 0.00 47 1010.8
20260503044809 10 42 0.0 4.8 0.00 0.00 0.00 48 1010.8
20260503044327 10 355 0.0 4.8 0.00 0.00 0.00 47 1011.0
20260503043820 10 38 0.0 0.0 0.00 0.00 0.00 47 1011.1
20260503043309 10 5 0.0 0.0 0.00 0.00 0.00 47 1011.1
20260503042824 10 5 0.0 0.0 0.00 0.00 0.00 47 1011.2
20260503042318 10 5 0.0 0.0 0.00 0.00 0.00 47 1011.1
20260503041820 10 5 0.0 0.0 0.00 0.00 0.00 48 1011.2
20260503041310 10 5 0.0 0.0 0.00 0.00 0.00 46 1011.2
20260503040829 10 5 0.0 0.0 0.00 0.00 0.00 46 1011.3
20260503040319 10 5 0.0 0.0 0.00 0.00 0.00 46 1011.1
20260503035810 10 5 0.0 0.0 0.00 0.00 0.00 45 1011.0
20260503035309 10 340 0.0 1.6 0.00 0.00 0.00 46 1011.1
20260503034829 10 5 0.0 4.8 0.00 0.00 0.00 46 1011.0
20260503034313 10 5 0.0 4.8 0.00 0.00 0.00 45 1011.0
20260503033808 10 11 0.0 4.8 0.00 0.00 0.00 45 1011.0
20260503033334 10 57 0.0 0.0 0.00 0.00 0.00 46 1010.9